Visibility
15.0 15.0 14.2 14.9 15.0 15.0 12.9 15.0 15.0 15.0 15.0 15.0 15.0 15.0 15.0 15.0 15.0 15.0 15.0 15.0 15.0 15.0 15.0 15.0 15.0 15.0 15.0 15.0 15.0 15.0 15.0 15.0 15.0 15.0 15.0 15.0 15.0 15.0 15.0 15.0 15.0 15.0 15.0 15.0 15.0 15.0 15.0 15.0 15.0 15.0 15.0 15.0 15.0 15.0
15.0 13.5 13.7 15.0 15.0 15.0 14.0 15.0 15.0 15.0 15.0 15.0 15.0 15.0 15.0 15.0 15.0 15.0 15.0 15.0 15.0 15.0 15.0 15.0 15.0 15.0 15.0 15.0 15.0 15.0 15.0 15.0 15.0 15.0 15.0 15.0 15.0 15.0 15.0 15.0 15.0 15.0 15.0 15.0 15.0 15.0 15.0 15.0 15.0 15.0 15.0 15.0 15.0 15.0
14.5 14.9 13.8 15.0 15.0 15.0 15.0 15.0 15.0 15.0 15.0 15.0 15.0 15.0 15.0 15.0 15.0 15.0 15.0 15.0 15.0 15.0 12.6 15.0 15.0 15.0 15.0 15.0 15.0 15.0 15.0 15.0 15.0 15.0 15.0 15.0 15.0 15.0 15.0 15.0 15.0 15.0 15.0 15.0 15.0 15.0 15.0 15.0 15.0 15.0 15.0 15.0 15.0 15.0
15.0 15.0 11.7 15.0 14.1 14.5 15.0 15.0 15.0 15.0 15.0 15.0 15.0 15.0 15.0 15.0 15.0 15.0 15.0 15.0 15.0 15.0 15.0 15.0 15.0 15.0 15.0 15.0 15.0 15.0 15.0 15.0 15.0 15.0 0.6 0.2 15.0 15.0 15.0 15.0 15.0 15.0 15.0 15.0 15.0 15.0 15.0 15.0 15.0 15.0 15.0 15.0 15.0 15.0
7.5 13.5 15.0 15.0 3.8 7.1 15.0 15.0 15.0 15.0 15.0 15.0 15.0 15.0 15.0 15.0 15.0 15.0 15.0 15.0 15.0 15.0 0.7 15.0 15.0 15.0 15.0 15.0 15.0 15.0 15.0 15.0 15.0 13.7 15.0 15.0 15.0 15.0 15.0 15.0 15.0 15.0 15.0 15.0 15.0 15.0 15.0 15.0 15.0 15.0 15.0 15.0 15.0 15.0
12.4 15.0 15.0 3.6 9.2 7.8 15.0 15.0 15.0 15.0 15.0 15.0 15.0 15.0 15.0 15.0 14.7 15.0 2.8 15.0 15.0 15.0 15.0 15.0 15.0 15.0 15.0 15.0 15.0 15.0 15.0 15.0 15.0 15.0 15.0 15.0 15.0 15.0 15.0 15.0 15.0 15.0 15.0 15.0 15.0 15.0 15.0 15.0 15.0 15.0 15.0 15.0 15.0 15.0
6.0 9.3 13.7 15.0 15.0 15.0 15.0 15.0 15.0 15.0 2.4 15.0 15.0 15.0 15.0 15.0 15.0 15.0 4.4 15.0 15.0 15.0 15.0 15.0 15.0 15.0 15.0 15.0 15.0 15.0 15.0 15.0 15.0 15.0 15.0 15.0 15.0 15.0 15.0 15.0 15.0 15.0 15.0 15.0 15.0 15.0 15.0 15.0 15.0 15.0 15.0 15.0 15.0 15.0
5.4 6.4 4.1 15.0 15.0 15.0 15.0 15.0 15.0 15.0 15.0 11.0 14.0 15.0 10.7 9.9 15.0 15.0 15.0 15.0 15.0 15.0 15.0 7.6 2.1 15.0 15.0 15.0 15.0 15.0 15.0 15.0 15.0 15.0 15.0 15.0 15.0 15.0 15.0 15.0 15.0 15.0 15.0 15.0 15.0 15.0 15.0 15.0 15.0 15.0 15.0 15.0 15.0 15.0
6.7 5.4 5.0 15.0 15.0 15.0 15.0 15.0 15.0 15.0 13.0 10.8 8.8 6.6 13.5 14.2 15.0 15.0 15.0 15.0 15.0 15.0 6.7 15.0 13.5 15.0 15.0 15.0 15.0 15.0 15.0 15.0 15.0 15.0 15.0 15.0 15.0 11.5 15.0 15.0 15.0 15.0 15.0 15.0 15.0 15.0 15.0 15.0 15.0 15.0 15.0 15.0 15.0 15.0
8.2 7.5 9.9 15.0 15.0 15.0 15.0 5.4 14.0 6.2 15.0 12.1 4.6 4.2 0.0 15.0 15.0 15.0 15.0 15.0 15.0 14.0 15.0 15.0 15.0 15.0 15.0 15.0 15.0 15.0 15.0 15.0 15.0 15.0 15.0 15.0 15.0 15.0 15.0 15.0 15.0 15.0 15.0 15.0 15.0 15.0 15.0 15.0 15.0 15.0 15.0 15.0 15.0 15.0
3.6 7.5 15.0 15.0 15.0 15.0 15.0 15.0 14.7 7.7 2.4 10.6 14.7 0.1 0.5 15.0 15.0 15.0 0.2 15.0 1.3 15.0 15.0 15.0 15.0 15.0 15.0 15.0 15.0 15.0 15.0 10.8 15.0 15.0 15.0 15.0 15.0 15.0 15.0 0.5 10.6 15.0 15.0 15.0 15.0 15.0 15.0 15.0 15.0 15.0 15.0 15.0 15.0 15.0
5.4 15.0 15.0 15.0 15.0 15.0 15.0 5.4 2.7 7.3 15.0 15.0 5.5 9.3 8.9 15.0 15.0 15.0 15.0 0.6 15.0 15.0 15.0 15.0 15.0 15.0 15.0 15.0 15.0 9.2 4.6 15.0 15.0 15.0 8.6 15.0 15.0 15.0 8.2 0.2 0.1 0.4 5.0 2.9 6.7 15.0 15.0 15.0 15.0 15.0 15.0 9.2 1.7 15.0
14.3 15.0 15.0 15.0 15.0 15.0 15.0 2.7 10.3 5.1 15.0 15.0 12.6 3.0 9.7 0.1 2.8 13.7 0.1 15.0 4.9 15.0 15.0 15.0 15.0 15.0 15.0 15.0 13.3 15.0 15.0 15.0 15.0 0.1 15.0 15.0 15.0 15.0 1.6 0.1 0.1 0.1 0.1 0.0 0.0 0.1 0.1 14.9 15.0 0.3 0.1 0.5 15.0 15.0
15.0 15.0 15.0 15.0 15.0 15.0 15.0 7.4 4.1 13.0 15.0 15.0 15.0 0.1 13.6 15.0 15.0 15.0 15.0 15.0 15.0 15.0 15.0 15.0 13.6 15.0 15.0 13.4 15.0 15.0 15.0 15.0 0.1 0.0 14.1 15.0 15.0 15.0 0.4 0.2 0.1 0.0 0.1 0.1 0.1 0.1 0.1 0.2 0.3 15.0 15.0 15.0 15.0 1.1
14.6 14.5 7.6 10.2 15.0 3.8 2.2 12.8 12.5 15.0 15.0 15.0 15.0 0.2 15.0 15.0 15.0 15.0 15.0 15.0 15.0 15.0 15.0 15.0 15.0 15.0 15.0 15.0 15.0 14.4 2.5 15.0 15.0 15.0 15.0 15.0 15.0 0.2 0.5 0.1 0.1 0.0 0.1 0.1 0.1 0.1 0.3 11.3 6.2 3.4 15.0 15.0 15.0 11.8
15.0 15.0 5.6 15.0 0.8 8.1 5.2 15.0 11.9 15.0 15.0 15.0 15.0 15.0 15.0 15.0 2.3 13.7 15.0 15.0 15.0 15.0 15.0 15.0 15.0 15.0 15.0 15.0 15.0 15.0 15.0 15.0 15.0 15.0 15.0 15.0 15.0 12.3 0.3 15.0 0.9 9.8 10.9 12.8 15.0 12.0 15.0 15.0 15.0 11.8 15.0 15.0 15.0 15.0
15.0 1.6 4.5 7.4 5.5 2.1 6.2 4.4 4.4 10.5 15.0 15.0 15.0 15.0 15.0 15.0 14.4 15.0 15.0 15.0 15.0 15.0 15.0 15.0 15.0 15.0 15.0 15.0 15.0 15.0 15.0 15.0 15.0 15.0 15.0 15.0 15.0 15.0 15.0 15.0 15.0 15.0 11.0 15.0 15.0 15.0 15.0 15.0 15.0 15.0 5.3 14.4 15.0 15.0
2.8 0.7 11.5 12.9 2.5 4.0 11.9 13.4 15.0 15.0 12.4 13.6 0.1 0.1 15.0 15.0 15.0 15.0 15.0 15.0 15.0 15.0 15.0 15.0 15.0 15.0 15.0 15.0 15.0 15.0 15.0 15.0 15.0 15.0 15.0 15.0 15.0 15.0 15.0 15.0 15.0 15.0 15.0 15.0 15.0 3.3 3.1 12.6 2.2 6.4 7.3 4.3 0.4 14.0
6.4 12.2 14.5 2.8 4.5 6.1 0.1 0.6 15.0 0.1 0.0 3.7 15.0 8.7 7.9 10.5 7.4 15.0 15.0 15.0 15.0 15.0 15.0 15.0 15.0 15.0 15.0 15.0 15.0 15.0 15.0 15.0 15.0 15.0 15.0 15.0 15.0 15.0 15.0 15.0 15.0 15.0 15.0 15.0 15.0 15.0 15.0 15.0 15.0 15.0 15.0 15.0 10.8 12.0
13.8 14.8 15.0 15.0 15.0 4.7 0.1 0.1 13.6 15.0 15.0 15.0 15.0 0.3 8.2 0.2 7.0 15.0 15.0 15.0 15.0 15.0 15.0 15.0 15.0 15.0 15.0 15.0 15.0 15.0 15.0 15.0 15.0 3.8 0.1 14.2 15.0 15.0 15.0 15.0 15.0 15.0 15.0 15.0 15.0 7.6 15.0 15.0 15.0 15.0 15.0 15.0 15.0 15.0
15.0 15.0 15.0 15.0 15.0 8.8 0.4 14.8 11.2 15.0 15.0 10.9 15.0 15.0 15.0 15.0 15.0 15.0 15.0 15.0 15.0 15.0 14.8 7.2 15.0 15.0 15.0 15.0 15.0 15.0 15.0 15.0 15.0 15.0 2.2 0.1 15.0 15.0 15.0 15.0 15.0 15.0 15.0 15.0 15.0 10.1 15.0 15.0 15.0 15.0 14.9 15.0 15.0 15.0
4.5 15.0 15.0 13.5 15.0 15.0 2.7 15.0 15.0 15.0 15.0 15.0 15.0 15.0 15.0 15.0 11.7 15.0 15.0 15.0 15.0 12.2 0.3 15.0 15.0 15.0 15.0 15.0 15.0 15.0 15.0 15.0 15.0 4.2 15.0 15.0 2.5 15.0 15.0 15.0 15.0 15.0 15.0 15.0 15.0 15.0 15.0 15.0 15.0 15.0 15.0 15.0 15.0 15.0
15.0 11.8 13.3 3.5 2.2 0.4 0.1 15.0 15.0 15.0 15.0 15.0 15.0 15.0 15.0 15.0 15.0 15.0 15.0 15.0 15.0 8.1 2.3 15.0 15.0 15.0 15.0 15.0 15.0 15.0 15.0 15.0 15.0 15.0 15.0 15.0 15.0 15.0 15.0 15.0 15.0 15.0 15.0 15.0 15.0 15.0 15.0 15.0 15.0 15.0 15.0 15.0 15.0 15.0
15.0 13.6 0.4 0.0 0.1 0.0 8.0 0.3 15.0 15.0 15.0 15.0 15.0 15.0 15.0 15.0 15.0 15.0 15.0 15.0 7.9 0.2 3.3 5.6 5.1 0.3 0.1 15.0 15.0 15.0 15.0 15.0 15.0 15.0 15.0 15.0 15.0 15.0 15.0 15.0 15.0 15.0 15.0 15.0 15.0 15.0 15.0 3.7 4.4 15.0 15.0 15.0 15.0 15.0
14.2 0.4 0.7 0.0 0.2 10.6 14.3 14.4 15.0 14.8 15.0 15.0 12.8 0.3 15.0 15.0 15.0 14.1 15.0 15.0 15.0 9.1 0.2 0.2 0.8 15.0 15.0 15.0 14.3 9.1 15.0 15.0 15.0 13.8 14.9 15.0 7.0 15.0 14.6 15.0 14.6 15.0 15.0 15.0 15.0 15.0 0.7 15.0 15.0 15.0 15.0 15.0 15.0 15.0
0.1 1.2 7.3 0.5 0.1 12.1 14.2 14.1 10.7 15.0 15.0 15.0 15.0 15.0 15.0 15.0 9.5 0.4 15.0 15.0 6.3 15.0 0.9 0.2 0.8 0.1 10.2 15.0 15.0 1.9 2.0 15.0 15.0 10.5 3.8 15.0 15.0 15.0 8.8 0.3 0.1 0.1 15.0 15.0 15.0 15.0 15.0 15.0 15.0 15.0 15.0 15.0 15.0 15.0
8.5 10.0 15.0 15.0 15.0 15.0 15.0 15.0 15.0 15.0 15.0 15.0 13.1 15.0 15.0 10.1 11.9 15.0 15.0 15.0 15.0 15.0 15.0 15.0 15.0 15.0 15.0 14.5 6.2 6.5 15.0 15.0 15.0 9.0 11.6 15.0 15.0 15.0 15.0 15.0 15.0 15.0 15.0 15.0 15.0 15.0 15.0 15.0 15.0 15.0 15.0 7.3 15.0 2.4
13.9 15.0 15.0 15.0 15.0 15.0 15.0 15.0 15.0 15.0 15.0 15.0 15.0 9.3 14.8 14.1 15.0 3.9 15.0 15.0 15.0 15.0 15.0 15.0 15.0 15.0 15.0 13.5 0.3 0.1 0.2 4.1 13.6 14.5 15.0 11.2 15.0 15.0 15.0 15.0 15.0 15.0 15.0 15.0 15.0 15.0 15.0 15.0 15.0 15.0 0.2 0.1 0.3 14.8
15.0 15.0 15.0 15.0 15.0 15.0 15.0 15.0 15.0 15.0 15.0 15.0 15.0 15.0 15.0 15.0 15.0 0.4 0.3 0.1 15.0 15.0 15.0 0.2 0.1 3.4 0.7 7.7 13.3 15.0 15.0 0.3 0.0 0.0 0.0 0.1 0.3 0.1 6.2 15.0 15.0 15.0 15.0 15.0 15.0 15.0 15.0 15.0 15.0 15.0 15.0 2.3 1.5 15.0
15.0 15.0 15.0 5.8 15.0 15.0 15.0 10.3 8.6 10.0 9.5 15.0 15.0 15.0 15.0 15.0 15.0 10.6 0.1 0.0 0.2 0.1 0.1 0.1 0.1 0.1 0.1 0.1 0.1 0.1 0.5 15.0 15.0 6.2 1.1 0.3 15.0 0.3 0.6 0.3 1.3 10.7 15.0 15.0 15.0 15.0 15.0 15.0 15.0 15.0 0.4 0.2 11.7 10.8
15.0 15.0 11.7 14.5 6.2 4.9 5.0 4.8 5.4 1.7 0.7 0.7 3.4 15.0 10.6 8.8 13.1 13.4 0.1 0.1 0.1 0.0 0.1 0.1 0.1 0.1 0.1 0.4 0.2 0.1 0.1 15.0 15.0 15.0 15.0 15.0 15.0 15.0 15.0 15.0 15.0 15.0 15.0 15.0 15.0 15.0 15.0 15.0 15.0 4.4 0.4 1.1 4.0 2.5
7.0 15.0 8.8 5.4 7.0 5.0 5.4 9.2 7.2 7.1 5.1 5.8 11.1 4.1 0.2 0.2 3.9 15.0 0.4 0.1 0.0 0.0 0.1 0.1 0.0 0.1 15.0 15.0 15.0 15.0 15.0 15.0 15.0 15.0 15.0 15.0 15.0 15.0 15.0 15.0 15.0 15.0 15.0 15.0 15.0 15.0 14.8 15.0 14.9 15.0 14.8 12.8 4.4 5.3
2.5 4.5 6.6 4.7 1.2 0.1 2.8 14.0 9.0 9.8 4.9 4.4 4.2 4.4 5.4 2.3 8.7 15.0 10.7 0.2 0.1 0.1 0.1 0.1 0.3 15.0 15.0 15.0 15.0 15.0 15.0 15.0 15.0 15.0 15.0 15.0 15.0 15.0 15.0 15.0 15.0 15.0 15.0 15.0 15.0 15.0 13.7 15.0 15.0 15.0 15.0 15.0 14.4 7.2